THOR AGENA B DEB, 2092

Orbit data source: Space-Track

THOR AGENA B DEB, 2092 is space debris in LEO originally from a launch on Mon, 29 Nov 1965 UTC launched from the Air Force Western Test Range (AFWTR). Debris objects in space refer to the collection of defunct objects orbiting the Earth. Examples of debris include non-operational satellites, rocket bodies, and fragments generated from explosions, collisions, or faulty payload assembly.

Loading next visibility...
Identifier
2092, 1965-098H
Orbit
LEO
Country
Flag of USUS
Related business
Manufacturer
Unknown
Mission
Spacecraft
Bus & Motor
Unknown
Mass
~1 kg wet, ~1 kg dry
Launch date (UTC)
1965-11-29 (60 years ago)
Launch vehicle
Unknown
Launch site
Air Force Western Test Range (AFWTR)
Object type
Payload
Rocket body
Debris
Shape & HBR
Unknown
Radar Cross Section
Small (<0.1 m²)

Expand to show TLE details & history
Last TLE update: 2 days ago

TLE from 2 days ago
0 THOR AGENA B DEB
1  2092U 65098H   26071.45890147  .00001693  00000-0  55974-3 0  9997
2  2092  79.8602  83.4944 1296070 305.2326  43.4011 12.34944624668489
Epoch: 2026-03-12T11:00Z
TLE epoch observation values (Epoch: 2026-03-12T11:00:49.087Z)
Latitude
0.00003°
Longitude
108.18139°
Altitude
858.543 km
Speed
7.732 km/s
True Right ascension
05h 33m 58s
True Declination
0° 00' 00"
Sunlit
Object was in daylight at epoch
Visualization orbit readout
Latitude
Unknown
Longitude
Unknown
Altitude
Unknown
Speed
Unknown
Apparent Right ascension
Unknown
Apparent Declination
Unknown
Sunlit
N/A
Visualization observer readout
Local Sidereal Time
13:37:47
Azimuth
Unknown
Elevation
Unknown
Doppler factor
Unknown
Orbital elements
Apogee altitude
2,549.89 km
Perigee altitude
501.151 km
Semi-major axis
7,903.658 km
Eccentricity
0.12961
Inclination
79.8602°
RAAN
83.4944°
Arg. of periapsis
305.2326°
True anomaly
54.88056°
Mean anomaly
43.4011°
Eccentric anomaly
49.00604°
Mean motion
3.08888 °/min
Orbital period
116.55 mins
BSTAR
0.00055974
Loading maneuver chart data...
Computing Atmospheric mass density...
Loading historical data...
Loading historical data...
Loading historical data...
Loading historical data...
Loading historical data...
Loading historical data...
Loading historical data...

Documentation

Showing up to 5 results
|